www.pogodaiklimat.ru

Погода и климат >> Архив погоды >> Индия >> Bhuj-Rudramata


ПОГОДА в Bhuj-Rudramata

  • Прогноз погоды в Bhuj-Rudramata
  • Монитор погоды в Bhuj-Rudramata
  • Климат города

АРХИВ ПОГОДЫ в Bhuj-Rudramata

Время (UTC), дата Ветер
(напр.,м/с)
 
Видим.   Явления Облачность Т
(С)
Тd
(С)
f
(%)
Тe
(С)
Тes
(С)
Комфортность P
(гПа)
Po
(гПа)
Тmin
(С)
Tmax
(С)
R
(мм)
R24
(мм)
S
(см)
06 23.04 ЮЗ 3 4000 м ясно +32.6 +20.7 50 +40 +56 опасность
солнечного
удара
1008.1 1008.0
09 23.04 ЮЗ 3 4000 м ясно +34.2 +19.0 41 +39 +56 опасность
солнечного
удара
1006.4 1006.0
12 23.04 ЮЗ 3 4000 м ясно +32.8 +19.5 46 +39 +42 очень
душно
1004.7 1005.0 +34.6
15 23.04 З 4 4000 м ясно +27.4 +21.1 69 +35 +35 очень
душно
1007.0 1007.0
18 23.04 З 2 4000 м ясно +26.4 +21.9 76 +34 +34 очень
душно
1006.9 1007.0
21 23.04 З 2 4000 м ясно +25.8 +21.6 78 +33 +33 очень
душно
1006.0 1006.0
00 24.04 З 2 4000 м 4/4 600 м
[Sc]
+25.4 +21.8 80 +33 +33 очень
душно
1005.1 1005.0
03 24.04 ЮЗ 2 4000 м 1/1 600 м
[Sc]
+27.6 +22.9 76 +37 +42 очень
душно
1007.9 1008.0 +24.6
06 24.04 ЮЗ 3 4000 м ясно +32.0 +20.3 50 +39 +56 опасность
солнечного
удара
1008.8 1009.0
09 24.04 ЮЗ 3 4000 м ясно +34.2 +19.0 41 +39 +56 опасность
солнечного
удара
1006.5 1007.0
12 24.04 ЮЗ 2 4000 м ясно +33.0 +19.4 45 +39 +43 очень
душно
1005.9 1006.0 +35.4
15 24.04 З 2 4000 м ясно +28.0 +22.1 70 +36 +36 очень
душно
1007.9 1008.0
18 24.04 Ю 2 4000 м 1/1 360 м
[St]
+26.2 +23.1 83 +35 +35 очень
душно
1008.8 1009.0
21 24.04 З 2 4000 м ясно +25.6 +22.3 82 +33 +33 очень
душно
1007.8 1008.0
00 25.04 З 1 4000 м 3/3 300 м
[St]
+24.8 +21.8 83 +32 +32 очень
душно
1008.2 1008.0
03 25.04 ЮЗ 3 4000 м ясно +27.0 +21.0 70 +34 +38 очень
душно
1009.9 1010.0 +23.4
06 25.04 ЮЗ 2 4000 м ясно +32.6 +16.9 39 +36 +57 опасность
солнечного
удара
1010.0 1010.0
09 25.04 З 2 4000 м ясно +37.4 +13.8 25 +38 +58 опасность
солнечного
удара
1007.6 1008.0
12 25.04 З 2 4000 м ясно +35.4 +15.4 30 +37 +41 очень
душно
1006.1 1006.0 +37.8
15 25.04 ЮЗ 2 4000 м ясно +28.0 +21.1 66 +35 +35 очень
душно
1007.9 1008.0
18 25.04 З 2 4000 м ясно +26.0 +22.1 79 +34 +34 очень
душно
1008.8 1009.0
21 25.04 ЮЗ 2 4000 м ясно +24.8 +22.1 85 +32 +32 очень
душно
1007.2 1007.0
00 26.04 ЮЗ 2 4000 м 3/3 600 м
[Sc]
+24.6 +22.2 87 +32 +32 очень
душно
1008.0 1008.0
03 26.04 З 3 4000 м ясно +26.8 +21.1 71 +34 +38 очень
душно
1009.2 1009.0 +23.6
06 26.04 З 3 4000 м ясно +34.0 +16.8 36 +37 +55 опасность
солнечного
удара
1009.3 1009.0
09 26.04 З 3 4000 м ясно +36.4 +15.5 29 +38 +53 опасность
солнечного
удара
1007.8 1008.0
12 26.04 З 3 4000 м ясно +35.6 +15.7 31 +38 +41 очень
душно
1007.0 1007.0 +37.0
15 26.04 ЮЗ 2 4000 м ясно +29.2 +24.3 75 +41 +41 опасность
перегрева
1008.0 1008.0
18 26.04 З 4 4000 м ясно +26.4 +23.2 83 +36 +36 очень
душно
1009.8 1010.0
21 26.04 штиль 0 4000 м ясно +25.4 +22.7 85 +33 +33 очень
душно
1008.8 1009.0
00 27.04 З 3 4000 м 4/4 600 м
[Sc]
+24.6 +23.1 91 +33 +33 очень
душно
1008.2 1008.0
03 27.04 ЮЗ 2 4000 м 1/1 360 м
[St]
+26.6 +23.7 84 +36 +41 очень
душно
1009.2 1009.0 +23.6
06 27.04 З 3 4000 м ясно +33.6 +18.6 41 +38 +54 опасность
солнечного
удара
1009.9 1010.0
09 27.04 З 3 4000 м ясно +36.8 +17.0 31 +39 +54 опасность
солнечного
удара
1008.6 1009.0
12 27.04 З 3 4000 м ясно +35.8 +13.2 26 +36 +39 очень
жарко
1007.7 1008.0 +37.7
15 27.04 З 2 4000 м ясно +28.6 +21.8 67 +37 +37 очень
душно
1009.5 1010.0
18 27.04 З 2 4000 м ясно +26.6 +23.4 83 +36 +36 очень
душно
1010.7 1011.0
21 27.04 З 2 4000 м ясно +25.6 +23.3 87 +34 +34 очень
душно
1008.8 1009.0
00 28.04 штиль 0 4000 м ясно +24.8 +23.0 90 +33 +33 очень
душно
1007.8 1008.0
03 28.04 штиль 0 4000 м 6/6 540 м
[Sc]
+27.0 +23.4 81 +37 +39 очень
душно
1009.7 1010.0 +23.4
06 28.04 ЮЗ 2 4000 м ясно +33.4 +20.6 47 +40 +60 опасность
солнечного
удара
1010.1 1010.0
09 28.04 ЮЗ 3 4000 м ясно +37.0 +18.9 35 +42 +57 опасность
перегрева
1007.4 1007.0
12 28.04 ЮЗ 3 4000 м ясно +34.0 +22.4 51 +43 +46 опасность
перегрева
1005.9 1006.0 +37.6
15 28.04 З 3 4000 м ясно +28.2 +22.6 72 +37 +37 очень
душно
1007.5 1008.0
18 28.04 З 2 4000 м ясно +27.0 +23.2 80 +36 +36 очень
душно
1008.2 1008.0
21 28.04 З 2 4000 м ясно +26.0 +23.1 84 +35 +35 очень
душно
1007.0 1007.0
00 29.04 нст 1 4000 м ясно +25.6 +23.3 87 +34 +34 очень
душно
1007.4 1007.0
03 29.04 нст 1 4000 м ясно +27.8 +23.4 77 +38 +44 очень
душно
1009.3 1009.0 +24.6
06 29.04 З 3 4000 м ясно +33.4 +21.3 49 +41 +57 опасность
перегрева
1009.6 1010.0
09 29.04 З 3 4000 м ясно +38.6 +18.3 31 +42 +58 опасность
перегрева
1007.3 1007.0
12 29.04 4000 м н/о +35.8 +22.8 47 +45 +48 опасность
перегрева
1005.9 1006.0 +39.6
15 29.04 З 2 4000 м ясно +29.4 +23.6 71 +40 +40 очень
душно
1007.5 1008.0
18 29.04 З 2 4000 м ясно +27.4 +24.8 86 +39 +39 очень
душно
1008.6 1009.0
21 29.04 штиль 0 4000 м ясно +26.2 +24.5 90 +37 +37 очень
душно
1007.9 1008.0
00 30.04 З 2 4000 м ясно +25.2 +23.7 91 +34 +34 очень
душно
1007.2 1007.0

 

Местоположение метеостанции Bhuj-Rudramata (Gujarat, Индия): широта 23.25 долгота 69.67 высота над уровнем моря 80 м.

В архиве по умолчанию представлена погода в Bhuj-Rudramata за последнюю неделю. Архивные данные за месяц целиком и за предыдущие месяцы, начиная с января 2011 года, Вы можете получить, выбрав интересующий диапазон дат из раскрывающегося списка и нажав кнопку "Ввод!".

Внимание! Время в таблицах - всемирное. Для получения местного времени необходимо прибавить поправку, которая в Bhuj-Rudramata равна 5.5 ч.

Смотрите также архив погоды в соседних городах и на ближайших метеорологических станциях:

Погода в Kandla (Gujarat, Индия) (47 км)
Погода в New Kandla (Gujarat, Индия) (63 км)
Погода в Mandvi (Gujarat, Индия) (63 км)
Погода в Naliya (Gujarat, Индия) (84 км)
Погода в Okha (Gujarat, Индия) (103 км)
Погода в Dwarka (Gujarat, Индия) (115 км)
Погода в Rajkot (Gujarat, Индия) (155 км)
Погода в Badin (Пакистан) (172 км)
Погода в Porbandar (Gujarat, Индия) (178 км)
Погода в Surendranagar (Gujarat, Индия) (206 км)

Пояснения к столбцам:

Ветер - указаны скорость ветра в м/с - средняя за 10 мин, порывы в срок и между сроками (в фигурных скобках) и направление, откуда дует ветер: С - северный, СВ - северо-восточный, В - восточный, ЮВ - юго-восточный, Ю - южный, ЮЗ - юго-западный, З - западный, СЗ - северо-западный.
Видимость - горизонтальная дальность видимости в метрах или километрах. При видимости от 1 до 10 км при отсутствии осадков обычно наблюдается дымка, при ухудшении видимости до 1 км и менее - туман. В сухую погоду видимость может ухудшаться дымом, пылью или мглою.
Явления - указаны атмосферные явления, наблюдавшиеся в срок или в последний час перед сроком; фигурными скобками обозначены явления, наблюдавшиеся между сроками (за 1-3 часа до срока); квадратными скобками обозначены град или гололедные отложения с указанием их диаметра в мм.
Облачность - указаны через наклонную черту общая и нижняя облачность в баллах и высота нижней границы облаков в метрах; квадратными скобками обозначены формы облаков: Ci - перистые, Cs - перисто-слоистые, Cc - перисто-кучевые, Ac - высококучевые, As - высокослоистые, Sc - слоисто-кучевые, Ns - слоисто-дождевые, Cu - кучевые, Cb - кучево-дождевые. Подробнее классификацию облаков см. в Атласе облаков (PDF).
T - Температура воздуха - температура, измеренная на высоте 2 м над землей.
Td - Температура точки росы - температура, при понижении до которой содержащийся в воздухе водяной пар достигнет насыщения.
f - Относительная влажность воздуха - влажноcть воздуха, измеренная на высоте 2 м над землей.
Te - Эффективная температура - температура, которую ощущает одетый по сезону человек в тени. Характеристика душности погоды. При расчете учитывается влияние влажности воздуха и скорости ветра на теплоощущения человека.
Tes - Эффективная температура на солнце - температура, которую ощущает человек, с поправкой на солнечный нагрев. Характеристика знойности погоды. Зависит от высоты солнца над горизонтом, облачности и скорости ветра. Ночью, в пасмурную погоду, а также при ветре 12 м/с и более поправка равна нулю.
P - Атмосферное давление - приведенное к уровню моря атмосферное давление.
Po - Атмосферное давление - измеренное на уровне метеостанции атмосферное давление.
Tmin - Минимальная температура - минимум температуры воздуха на высоте 2 м над землей.
Tmax - Максимальная температура - максимум температуры воздуха на высоте 2 м над землей.
R - Количество осадков - Количество выпавших осадков за период времени, мм. При наведении курсора мыши на число - период времени, за который выпало указанное количество осадков.
R24 - Количество осадков - Количество выпавших осадков за 24 часа, мм.
S - Снежный покров - Высота снежного покрова, см. При наведении курсора мыши на число - состояние снежного покрова и степень покрытия местности в баллах.